Islip, NY

8:11 PM EDT on October 22, 2017 (GMT -0400)
Long Island Mac Arthur

Weather History for KISP - August, 2013

Change the Weather History Date:

Tuesday, August 27, 2013

  Actual Average Record
Temperature  
Mean Temperature 78 °F 72 °F  
Max Temperature 85 °F 79 °F 92 °F (1980)
Min Temperature 70 °F 64 °F 52 °F (1989)
Degree Days  
Heating Degree Days 0 0  
Month to date heating degree days 0 0  
Since 1 June heating degree days 12 40  
Since 1 July heating degree days 0 2  
Cooling Degree Days 13 7  
Month to date cooling degree days 199 222  
Year to date cooling degree days 809 662  
Since 1 June cooling degree days 777 638  
Growing Degree Days 26 (Base 50)    
Moisture  
Dew Point 68 °F    
Average Humidity 78    
Maximum Humidity 97    
Minimum Humidity 58    
Precipitation  
Precipitation 0.12 in 0.12 in 2.19 in (2006)
Month to date precipitation 2.72 3.50  
Year to date precipitation 28.56 30.66  
Snow  
Snow 0.00 in 0.00 in - ()
Month to date snowfall 0.0 0.0  
Since 1 July snowfall 0.0 0.0  
Snow Depth 0.00 in    
Sea Level Pressure  
Sea Level Pressure 29.84 in    
Wind  
Wind Speed 8 mph (NW)    
Max Wind Speed 18 mph    
Max Gust Speed 26 mph    
Visibility 8 miles    
Events Rain    
T = Trace of Precipitation, MM = Missing Value Source: NWS Daily Summary

Daily Weather History Graph

Daily Weather History Graph

Search for Another Location

Airport or City:

Trip Planner

Search our weather history database for the weather conditions in past years. The results will help you decide how hot, cold, wet, or windy it might be!

Date:

Astronomy

Aug. 27, 2013 Rise Set
Actual Time 6:14 AM EDT 7:32 PM EDT
Civil Twilight 5:46 AM EDT 8:00 PM EDT
Nautical Twilight 5:12 AM EDT 8:34 PM EDT
Astronomical Twilight 4:36 AM EDT 9:10 PM EDT
Moon 11:20 PM EDT (8/27) 1:12 PM EDT (8/27)
Length of Visible Light 14h 14m
Length of Day
13h 17m
Waning Gibbous, 57% of the Moon is Illuminated
Aug 27
Waning Gibbous
Aug 28
Last Quarter
Sep 5
New
Sep 12
First Quarter
Sep 19
Full

Hourly Weather History & Observations

Time (EDT) Temp. Heat Index Dew Point Humidity Pressure Visibility Wind Dir Wind Speed Gust Speed Precip Events Conditions
12:56 AM 72.0 °F - 68.0 °F 87% 29.89 in 10.0 mi Calm Calm - 0.02 in Rain Light Rain
1:56 AM 71.1 °F - 66.9 °F 87% 29.87 in 7.0 mi SW 5.8 mph - 0.00 in Rain Light Rain
2:49 AM 69.8 °F - 68.0 °F 94% 29.86 in 2.5 mi SW 4.6 mph - 0.08 in Rain Light Rain
2:56 AM 70.0 °F - 68.0 °F 93% 29.85 in 6.0 mi SW 3.5 mph - 0.08 in Rain Light Rain
3:56 AM 71.1 °F - 68.0 °F 90% 29.82 in 8.0 mi SSW 8.1 mph - 0.02 in Rain Light Rain
4:56 AM 70.0 °F - 68.0 °F 93% 29.81 in 9.0 mi SW 8.1 mph - 0.01 in   Overcast
5:56 AM 70.0 °F - 68.0 °F 93% 29.80 in 7.0 mi SW 5.8 mph - 0.00 in   Overcast
6:56 AM 70.0 °F - 68.0 °F 93% 29.80 in 6.0 mi SW 3.5 mph - N/A   Mostly Cloudy
7:56 AM 71.1 °F - 69.1 °F 93% 29.81 in 5.0 mi West 3.5 mph - N/A   Mostly Cloudy
8:19 AM 71.6 °F - 69.8 °F 94% 29.81 in 2.5 mi NW 8.1 mph - N/A   Overcast
8:21 AM 71.6 °F - 69.8 °F 94% 29.81 in 2.5 mi NW 9.2 mph - N/A   Overcast
8:35 AM 71.6 °F - 68.0 °F 88% 29.81 in 2.5 mi North 9.2 mph - N/A   Overcast
8:53 AM 71.6 °F - 68.0 °F 88% 29.82 in 3.0 mi North 8.1 mph - 0.00 in Rain Light Rain
8:56 AM 71.1 °F - 68.0 °F 90% 29.82 in 3.0 mi North 10.4 mph - 0.00 in Rain Light Rain
9:56 AM 71.1 °F - 68.0 °F 90% 29.83 in 10.0 mi NNW 10.4 mph - 0.01 in   Overcast
10:27 AM 73.4 °F - 69.8 °F 88% 29.83 in 10.0 mi North 8.1 mph - 0.00 in Rain Light Rain
10:56 AM 73.0 °F - 69.1 °F 87% 29.83 in 10.0 mi North 10.4 mph - 0.00 in   Overcast
11:56 AM 77.0 °F - 69.1 °F 76% 29.84 in 10.0 mi North 17.3 mph 21.9 mph N/A   Overcast
12:27 PM 78.8 °F - 69.8 °F 74% 29.83 in 10.0 mi North 11.5 mph 21.9 mph N/A   Mostly Cloudy
12:56 PM 80.1 °F 82.9 °F 69.1 °F 69% 29.83 in 10.0 mi North 15.0 mph - N/A   Mostly Cloudy
1:56 PM 82.0 °F 85.5 °F 69.1 °F 65% 29.84 in 10.0 mi North 11.5 mph 19.6 mph N/A   Mostly Cloudy
2:41 PM 84.2 °F 88.4 °F 69.8 °F 62% 29.83 in 10.0 mi North 11.5 mph - N/A   Mostly Cloudy
2:56 PM 84.0 °F 87.8 °F 69.1 °F 61% 29.83 in 10.0 mi North 13.8 mph - N/A   Mostly Cloudy
3:56 PM 84.0 °F 87.0 °F 68.0 °F 58% 29.82 in 10.0 mi NW 13.8 mph - N/A   Scattered Clouds
4:56 PM 84.9 °F 88.2 °F 68.0 °F 57% 29.82 in 10.0 mi NNW 11.5 mph - N/A   Scattered Clouds
5:56 PM 82.9 °F 85.4 °F 66.9 °F 58% 29.83 in 10.0 mi NNW 6.9 mph - N/A   Scattered Clouds
6:56 PM 81.0 °F 83.3 °F 66.9 °F 62% 29.84 in 10.0 mi NW 5.8 mph - N/A   Mostly Cloudy
7:56 PM 75.0 °F - 66.9 °F 76% 29.86 in 10.0 mi SSE 6.9 mph - N/A   Mostly Cloudy
8:56 PM 72.0 °F - 66.9 °F 84% 29.88 in 10.0 mi SSE 5.8 mph - N/A   Mostly Cloudy
9:56 PM 72.0 °F - 66.9 °F 84% 29.88 in 10.0 mi South 4.6 mph - N/A   Scattered Clouds
10:56 PM 71.1 °F - 66.9 °F 87% 29.89 in 10.0 mi Calm Calm - N/A   Scattered Clouds
11:56 PM 71.1 °F - 66.9 °F 87% 29.90 in 10.0 mi SW 3.5 mph - N/A   Mostly Cloudy